Time,TemperatureF,DewpointF,PressureIn,WindDirection,WindDirectionDegrees,WindSpeedMPH,WindSpeedGustMPH,Humidity,HourlyPrecipIn,Conditions,Clouds,dailyrainin,SoftwareType,DateUTC
2013-03-29 17:00:00,60.5,47.4,29.44,NW,315,5.0,9.0,62,0.00,,---,0.00,VWS V14.01,2013-03-30 00:00:00,
2013-03-29 18:03:00,60.5,47.4,29.44,NW,315,5.0,9.0,62,0.00,,---,0.00,VWS V14.01,2013-03-30 01:03:00,
2013-03-29 18:08:00,59.3,47.1,29.44,NW,310,7.0,8.0,64,0.00,,---,0.00,VWS V14.01,2013-03-30 01:08:00,
2013-03-29 18:13:00,59.1,47.0,29.44,NW,319,6.0,8.0,64,0.00,,---,0.00,VWS V14.01,2013-03-30 01:13:00,
2013-03-29 18:18:00,59.1,47.0,29.44,NW,319,5.0,8.0,64,0.00,,---,0.00,VWS V14.01,2013-03-30 01:18:00,
2013-03-29 18:23:00,58.9,46.8,29.44,NW,304,7.0,8.0,64,0.00,,---,0.00,VWS V14.01,2013-03-30 01:23:00,
2013-03-29 18:28:00,58.8,46.7,29.44,NW,306,3.0,8.0,64,0.00,,---,0.00,VWS V14.01,2013-03-30 01:28:00,
2013-03-29 18:33:00,58.7,47.0,29.44,NW,318,4.0,5.0,65,0.00,,---,0.00,VWS V14.01,2013-03-30 01:33:00,
2013-03-29 18:38:00,58.6,47.3,29.44,NW,319,6.0,6.0,66,0.00,,---,0.00,VWS V14.01,2013-03-30 01:38:00,
2013-03-29 18:43:00,58.5,47.2,29.43,NW,317,5.0,7.0,66,0.00,,---,0.00,VWS V14.01,2013-03-30 01:43:00,
2013-03-29 18:48:00,58.2,47.7,29.44,NW,317,2.0,7.0,68,0.00,,---,0.00,VWS V14.01,2013-03-30 01:48:00,
2013-03-29 18:53:00,57.9,47.4,29.43,NNW,329,3.0,7.0,68,0.00,,---,0.00,VWS V14.01,2013-03-30 01:53:00,
2013-03-29 18:58:00,57.6,47.5,29.43,NNW,329,2.0,7.0,69,0.00,,---,0.00,VWS V14.01,2013-03-30 01:58:00,
2013-03-29 19:03:00,57.2,47.9,29.43,NNW,329,3.0,5.0,71,0.00,,---,0.00,VWS V14.01,2013-03-30 02:03:00,
2013-03-29 19:08:00,56.8,47.9,29.44,NNW,329,4.0,5.0,72,0.00,,---,0.00,VWS V14.01,2013-03-30 02:08:00,
2013-03-29 19:13:00,56.4,47.9,29.43,NNW,329,3.0,5.0,73,0.00,,---,0.00,VWS V14.01,2013-03-30 02:13:00,
2013-03-29 19:18:00,56.0,47.5,29.44,NNW,329,3.0,5.0,73,0.00,,---,0.00,VWS V14.01,2013-03-30 02:18:00,
2013-03-29 19:23:00,55.7,47.5,29.44,NNW,329,3.0,5.0,74,0.00,,---,0.00,VWS V14.01,2013-03-30 02:23:00,
2013-03-29 19:28:00,55.4,47.6,29.43,NNW,329,2.0,5.0,75,0.00,,---,0.00,VWS V14.01,2013-03-30 02:28:00,
2013-03-29 19:33:00,55.1,47.3,29.43,NNW,329,4.0,5.0,75,0.00,,---,0.00,VWS V14.01,2013-03-30 02:33:00,
2013-03-29 19:38:00,54.9,47.5,29.43,NNW,329,4.0,5.0,76,0.00,,---,0.00,VWS V14.01,2013-03-30 02:38:00,
2013-03-29 19:43:00,54.7,47.3,29.44,NNW,331,6.0,6.0,76,0.00,,---,0.00,VWS V14.01,2013-03-30 02:43:00,
2013-03-29 19:48:00,54.6,47.5,29.44,NNW,332,3.0,6.0,77,0.00,,---,0.00,VWS V14.01,2013-03-30 02:48:00,
2013-03-29 19:53:00,54.5,47.5,29.44,NNW,337,3.0,7.0,77,0.00,,---,0.00,VWS V14.01,2013-03-30 02:53:00,
2013-03-29 19:58:00,54.4,47.7,29.44,NNW,338,3.0,7.0,78,0.00,,---,0.00,VWS V14.01,2013-03-30 02:58:00,
2013-03-29 20:03:00,54.2,47.5,29.44,NNW,333,3.0,7.0,78,0.00,,---,0.00,VWS V14.01,2013-03-30 03:03:00,
2013-03-29 20:08:00,53.9,47.5,29.44,NNW,337,4.0,7.0,79,0.00,,---,0.00,VWS V14.01,2013-03-30 03:08:00,
2013-03-29 20:13:00,53.6,47.3,29.44,NNW,342,4.0,7.0,79,0.00,,---,0.00,VWS V14.01,2013-03-30 03:13:00,
2013-03-29 20:18:00,53.4,47.4,29.45,NNW,336,7.0,9.0,80,0.00,,---,0.00,VWS V14.01,2013-03-30 03:18:00,
2013-03-29 20:23:00,53.2,47.2,29.45,NNW,344,5.0,9.0,80,0.00,,---,0.00,VWS V14.01,2013-03-30 03:23:00,
2013-03-29 20:28:00,53.0,47.3,29.45,NNW,339,4.0,9.0,81,0.00,,---,0.00,VWS V14.01,2013-03-30 03:28:00,
2013-03-29 20:33:00,52.7,47.0,29.45,NNW,335,4.0,6.0,81,0.00,,---,0.00,VWS V14.01,2013-03-30 03:33:00,
2013-03-29 20:38:00,52.4,46.8,29.45,NNW,339,5.0,6.0,81,0.00,,---,0.00,VWS V14.01,2013-03-30 03:38:00,
2013-03-29 20:43:00,52.1,46.8,29.45,NNW,340,2.0,6.0,82,0.00,,---,0.00,VWS V14.01,2013-03-30 03:43:00,
2013-03-29 20:48:00,51.8,46.5,29.45,NNW,334,5.0,7.0,82,0.00,,---,0.00,VWS V14.01,2013-03-30 03:48:00,
2013-03-29 20:53:00,51.6,46.3,29.46,NNW,339,4.0,8.0,82,0.00,,---,0.00,VWS V14.01,2013-03-30 03:53:00,
2013-03-29 20:58:00,51.3,46.0,29.46,NNW,345,4.0,8.0,82,0.00,,---,0.00,VWS V14.01,2013-03-30 03:58:00,
2013-03-29 21:00:00,51.2,46.2,29.46,NNW,345,3.0,8.0,83,0.00,,---,0.00,VWS V14.01,2013-03-30 04:00:00,
2013-03-29 21:05:00,50.8,45.8,29.46,NNW,344,3.0,6.0,83,0.00,,---,0.00,VWS V14.01,2013-03-30 04:05:00,
2013-03-29 21:10:00,50.4,45.8,29.46,NNW,340,4.0,6.0,84,0.00,,---,0.00,VWS V14.01,2013-03-30 04:10:00,
2013-03-29 21:15:00,50.0,45.4,29.46,North,350,3.0,7.0,84,0.00,,---,0.00,VWS V14.01,2013-03-30 04:15:00,
2013-03-29 21:20:00,49.7,45.4,29.46,North,349,3.0,7.0,85,0.00,,---,0.00,VWS V14.01,2013-03-30 04:20:00,
2013-03-29 21:25:00,49.6,45.3,29.46,NNW,336,5.0,8.0,85,0.00,,---,0.00,VWS V14.01,2013-03-30 04:25:00,
2013-03-29 21:30:00,49.7,45.4,29.46,NNW,336,5.0,8.0,85,0.00,,---,0.00,VWS V14.01,2013-03-30 04:30:00,
2013-03-29 21:35:00,49.7,45.4,29.46,NNW,330,6.0,9.0,85,0.00,,---,0.00,VWS V14.01,2013-03-30 04:35:00,
2013-03-29 21:40:00,49.6,45.3,29.46,NNW,333,5.0,10.0,85,0.00,,---,0.00,VWS V14.01,2013-03-30 04:40:00,
2013-03-29 21:45:00,49.4,45.1,29.46,NNW,338,8.0,10.0,85,0.00,,---,0.00,VWS V14.01,2013-03-30 04:45:00,
2013-03-29 21:50:00,49.2,44.9,29.46,NNW,328,6.0,11.0,85,0.00,,---,0.00,VWS V14.01,2013-03-30 04:50:00,
2013-03-29 21:55:00,49.0,45.0,29.46,NW,325,7.0,11.0,86,0.00,,---,0.00,VWS V14.01,2013-03-30 04:55:00,
2013-03-29 22:00:00,48.7,44.7,29.47,NNW,336,6.0,11.0,86,0.00,,---,0.00,VWS V14.01,2013-03-30 05:00:00,
2013-03-29 22:05:00,48.5,44.5,29.47,NNW,336,3.0,7.0,86,0.00,,---,0.00,VWS V14.01,2013-03-30 05:05:00,
2013-03-29 22:10:00,48.2,44.5,29.47,NNW,337,5.0,8.0,87,0.00,,---,0.00,VWS V14.01,2013-03-30 05:10:00,
2013-03-29 22:15:00,47.9,44.2,29.47,NNW,336,3.0,8.0,87,0.00,,---,0.00,VWS V14.01,2013-03-30 05:15:00,
2013-03-29 22:20:00,47.7,44.0,29.47,NNW,342,6.0,8.0,87,0.00,,---,0.00,VWS V14.01,2013-03-30 05:20:00,
2013-03-29 22:25:00,47.3,43.9,29.47,NNW,344,4.0,8.0,88,0.00,,---,0.00,VWS V14.01,2013-03-30 05:25:00,
2013-03-29 22:30:00,47.2,44.1,29.47,NNW,339,8.0,9.0,89,0.00,,---,0.00,VWS V14.01,2013-03-30 05:30:00,
2013-03-29 22:35:00,47.1,44.0,29.47,NNW,339,5.0,8.0,89,0.00,,---,0.00,VWS V14.01,2013-03-30 05:35:00,
2013-03-29 22:40:00,46.9,43.8,29.47,NNW,342,6.0,11.0,89,0.00,,---,0.00,VWS V14.01,2013-03-30 05:40:00,
2013-03-29 22:45:00,46.8,43.7,29.47,NNW,335,7.0,11.0,89,0.00,,---,0.00,VWS V14.01,2013-03-30 05:45:00,
2013-03-29 22:50:00,46.6,43.5,29.47,NNW,335,5.0,11.0,89,0.00,,---,0.00,VWS V14.01,2013-03-30 05:50:00,
2013-03-29 22:55:00,46.5,43.7,29.47,NNW,342,6.0,11.0,90,0.00,,---,0.00,VWS V14.01,2013-03-30 05:55:00,
2013-03-29 23:00:00,46.3,43.5,29.48,NNW,336,4.0,11.0,90,0.00,,---,0.00,VWS V14.01,2013-03-30 06:00:00,